NORTHEAST SUFFOLK  -  Winter Weather Advisory Winter Weather Advisory        NORTHERN NASSAU  -  Winter Weather Advisory Winter Weather Advisory        NORTHERN QUEENS  -  Winter Weather Advisory Winter Weather Advisory        NORTHWEST SUFFOLK  -  Winter Weather Advisory Winter Weather Advisory        SOUTHEAST SUFFOLK  -  Winter Weather Advisory Winter Weather Advisory        SOUTHERN NASSAU  -  Winter Weather Advisory Winter Weather Advisory        SOUTHERN QUEENS  -  Winter Weather Advisory Winter Weather Advisory        SOUTHWEST SUFFOLK  -  Winter Weather Advisory Winter Weather Advisory      

Active alerts

Northern Queens
  Details for Northern Queens Winter Weather Advisory
Southern Queens
  Details for Southern Queens Winter Weather Advisory
Northern Nassau
  Details for Northern Nassau Winter Weather Advisory
Southern Nassau
  Details for Southern Nassau Winter Weather Advisory
Northwest Suffolk
  Details for Northwest Suffolk Winter Weather Advisory
Southwest Suffolk
  Details for Southwest Suffolk Winter Weather Advisory
Northeast Suffolk
  Details for Northeast Suffolk Winter Weather Advisory
Southeast Suffolk
  Details for Southeast Suffolk Winter Weather Advisory


WXM80 ListenWXM80 Stop

You find our weather info also at:

UK Metoffice

WeatherCloud

Weather Underground

Northeastern Weather Network

AWEKAS

Citizen Weather Observer Program (CWOP)

HAMweather, WeatherForYou, PWS Weather


Weather Underground History page Text

Daily Summary for December 17, 2017 Units:  English    Metric   Both
« Previous Day
Next Day »
Daily Weekly Monthly Yearly Custom
  High: Low: Average:
Temperature: 35.4 °F 30.5 °F 32.6 °F
Dew Point: 27.9 °F 23.1 °F 25.2 °F
Humidity: 82 % 67 % 74 %
Wind Speed: 5.9 mph 0.0 mph 1.1 mph
Wind Gust: 11.0 mph - -
Wind:- - ENE
Pressure: 30.31 in 30.20 in -
Precipitation: 0.00 in    
Historical Graphs
 
 
Tabular Data for December 17, 2017
Time Temperature Dew Point Pressure Wind Wind Speed Wind Gust Humidity Rainfall Rate (Hourly)
00:03 34.5 °F 27.1 °F 30.20 in NNE 5.0 mph 6.9 mph 74 % 0.00 in
00:08 34.4 °F 27.0 °F 30.20 in NNE 3.6 mph 4.6 mph 74 % 0.00 in
00:10 34.4 °F 27.0 °F 30.20 in NNE 3.4 mph 4.6 mph 74 % 0.00 in
00:13 34.2 °F 26.4 °F 30.20 in NNE 3.3 mph 7.0 mph 73 % 0.00 in
00:19 34.1 °F 26.3 °F 30.20 in NNE 3.7 mph 6.0 mph 73 % 0.00 in
00:26 34.0 °F 26.3 °F 30.20 in NNE 3.0 mph 7.0 mph 73 % 0.00 in
00:31 33.9 °F 26.5 °F 30.20 in NNE 2.0 mph 5.0 mph 74 % 0.00 in
00:32 33.9 °F 26.5 °F 30.20 in NNE 2.7 mph 5.8 mph 74 % 0.00 in
00:35 33.8 °F 26.4 °F 30.20 in North 5.9 mph 8.1 mph 74 % 0.00 in
00:40 33.6 °F 25.9 °F 30.21 in NNE 4.4 mph 5.8 mph 73 % 0.00 in
00:41 33.6 °F 25.9 °F 30.21 in NNE 4.2 mph 5.8 mph 73 % 0.00 in
00:46 33.5 °F 25.8 °F 30.21 in NNE 3.1 mph 6.9 mph 73 % 0.00 in
00:47 33.4 °F 25.7 °F 30.21 in NNE 5.9 mph 11.0 mph 73 % 0.00 in
00:52 33.3 °F 25.6 °F 30.21 in NNE 4.9 mph 8.1 mph 73 % 0.00 in
00:53 33.3 °F 25.6 °F 30.22 in NNE 5.4 mph 9.2 mph 73 % 0.00 in
00:58 33.2 °F 25.5 °F 30.22 in NNE 3.4 mph 5.8 mph 73 % 0.00 in
01:01 33.1 °F 25.4 °F 30.22 in NNE 2.1 mph 5.8 mph 73 % 0.00 in
01:06 33.0 °F 25.0 °F 30.22 in NNE 2.8 mph 3.5 mph 72 % 0.00 in
01:07 33.0 °F 25.0 °F 30.22 in NNE 2.6 mph 3.5 mph 72 % 0.00 in
01:12 32.9 °F 24.9 °F 30.22 in Calm   2.3 mph 72 % 0.00 in
01:13 32.9 °F 24.9 °F 30.22 in NNE 1.4 mph 2.3 mph 72 % 0.00 in
01:18 32.8 °F 24.8 °F 30.22 in NNE 2.6 mph 4.0 mph 72 % 0.00 in
01:23 32.7 °F 24.7 °F 30.22 in NNE 1.5 mph 3.5 mph 72 % 0.00 in
01:26 32.6 °F 24.9 °F 30.22 in NNE 5.0 mph 9.2 mph 73 % 0.00 in
01:31 32.6 °F 24.6 °F 30.22 in North 1.6 mph 3.5 mph 72 % 0.00 in
01:36 32.5 °F 24.8 °F 30.22 in NNE 0.1 mph 3.5 mph 73 % 0.00 in
01:41 32.4 °F 24.4 °F 30.23 in NNE 1.3 mph 3.5 mph 72 % 0.00 in
01:42 32.4 °F 24.4 °F 30.23 in North 1.9 mph 4.0 mph 72 % 0.00 in
01:47 32.3 °F 24.6 °F 30.23 in NNE 1.1 mph 4.6 mph 73 % 0.00 in
01:48 32.3 °F 24.6 °F 30.23 in NNE 0.4 mph 4.6 mph 73 % 0.00 in
01:49 32.3 °F 24.6 °F 30.23 in NNE 0.2 mph 1.2 mph 73 % 0.00 in
01:56 32.1 °F 24.1 °F 30.24 in NNE 2.6 mph 4.0 mph 72 % 0.00 in
02:01 32.1 °F 24.4 °F 30.24 in NNE 0.8 mph 3.0 mph 73 % 0.00 in
02:06 32.1 °F 24.4 °F 30.24 in NNE 1.4 mph 4.0 mph 73 % 0.00 in
02:07 32.1 °F 24.7 °F 30.24 in NNE 2.5 mph 3.5 mph 74 % 0.00 in
02:12 32.0 °F 24.3 °F 30.24 in NNE 0.8 mph 3.5 mph 73 % 0.00 in
02:14 32.0 °F 24.3 °F 30.25 in NNE 1.0 mph 3.0 mph 73 % 0.00 in
02:19 32.0 °F 24.3 °F 30.25 in NNE 0.5 mph 3.5 mph 73 % 0.00 in
02:20 32.0 °F 24.3 °F 30.25 in NNE 0.1 mph 1.2 mph 73 % 0.00 in
02:21 32.0 °F 24.3 °F 30.25 in Calm   4.0 mph 73 % 0.00 in
02:26 31.9 °F 24.3 °F 30.25 in NNE 1.0 mph 3.0 mph 73 % 0.00 in
02:27 31.9 °F 24.6 °F 30.25 in NNE 2.0 mph 2.3 mph 74 % 0.00 in
02:29 31.9 °F 24.2 °F 30.25 in NNE 0.6 mph 3.5 mph 73 % 0.00 in
02:34 31.9 °F 24.6 °F 30.24 in NNE 1.0 mph 4.6 mph 74 % 0.00 in
02:35 31.9 °F 24.6 °F 30.24 in NNE 1.1 mph 3.5 mph 74 % 0.00 in
02:40 31.9 °F 24.2 °F 30.25 in NNE 1.1 mph 3.5 mph 73 % 0.00 in
02:41 31.9 °F 24.2 °F 30.24 in NNE 1.7 mph 3.5 mph 73 % 0.00 in
02:44 31.9 °F 24.2 °F 30.25 in NNE 0.4 mph 1.0 mph 73 % 0.00 in
02:50 31.9 °F 24.2 °F 30.25 in NNE 1.0 mph 3.5 mph 73 % 0.00 in
02:53 31.8 °F 24.5 °F 30.25 in NNE 3.6 mph 3.6 mph 74 % 0.00 in
02:58 31.8 °F 24.1 °F 30.25 in North 2.1 mph 4.6 mph 73 % 0.00 in
03:03 31.7 °F 24.0 °F 30.25 in NNE 3.6 mph 5.8 mph 73 % 0.00 in
03:04 31.7 °F 24.0 °F 30.25 in NNE 3.5 mph 5.0 mph 73 % 0.00 in
03:09 31.7 °F 24.0 °F 30.25 in NNE 0.8 mph 3.5 mph 73 % 0.00 in
03:10 31.7 °F 24.0 °F 30.25 in NNE 2.5 mph 4.0 mph 73 % 0.00 in
03:11 31.7 °F 24.0 °F 30.25 in NNE 2.8 mph 4.0 mph 73 % 0.00 in
03:16 31.7 °F 23.7 °F 30.25 in NNE 2.0 mph 5.8 mph 72 % 0.00 in
03:20 31.7 °F 23.7 °F 30.26 in North 3.0 mph 4.6 mph 72 % 0.00 in
03:23 31.6 °F 23.6 °F 30.26 in North 0.2 mph 2.3 mph 72 % 0.00 in
03:28 31.6 °F 23.6 °F 30.26 in North 0.7 mph 2.3 mph 72 % 0.00 in
03:33 31.6 °F 23.6 °F 30.26 in North 0.6 mph 1.2 mph 72 % 0.00 in
03:34 31.6 °F 23.6 °F 30.26 in Calm     72 % 0.00 in
03:39 31.5 °F 23.5 °F 30.26 in North 1.2 mph 3.5 mph 72 % 0.00 in
03:42 31.5 °F 23.5 °F 30.26 in Calm     72 % 0.00 in
03:47 31.5 °F 23.5 °F 30.26 in Calm     72 % 0.00 in
03:48 31.5 °F 23.5 °F 30.26 in Calm     72 % 0.00 in
03:53 31.5 °F 23.5 °F 30.25 in North 0.9 mph 2.3 mph 72 % 0.00 in
03:54 31.5 °F 23.5 °F 30.25 in North 0.2 mph 2.3 mph 72 % 0.00 in
03:59 31.5 °F 23.8 °F 30.25 in North 0.8 mph 2.3 mph 73 % 0.00 in
04:02 31.5 °F 23.8 °F 30.25 in North 1.2 mph 3.0 mph 73 % 0.00 in
04:09 31.5 °F 23.5 °F 30.26 in NNE 2.4 mph 4.0 mph 72 % 0.00 in
04:13 31.5 °F 23.5 °F 30.27 in NNE 0.9 mph 2.3 mph 72 % 0.00 in
04:18 31.5 °F 23.5 °F 30.27 in NNE 1.4 mph 4.6 mph 72 % 0.00 in
04:23 31.5 °F 23.5 °F 30.27 in NNE 0.2 mph 1.2 mph 72 % 0.00 in
04:28 31.5 °F 23.5 °F 30.27 in NNE 3.2 mph 6.0 mph 72 % 0.00 in
04:33 31.5 °F 23.5 °F 30.27 in NNE 4.2 mph 5.8 mph 72 % 0.00 in
04:38 31.5 °F 23.8 °F 30.27 in North 1.1 mph 3.5 mph 73 % 0.00 in
04:43 31.5 °F 23.8 °F 30.27 in NNE 0.8 mph 3.5 mph 73 % 0.00 in
04:48 31.5 °F 23.8 °F 30.27 in North 1.7 mph 3.5 mph 73 % 0.00 in
04:49 31.5 °F 23.8 °F 30.27 in North 1.2 mph 2.3 mph 73 % 0.00 in
04:52 31.5 °F 23.8 °F 30.27 in NNE 3.3 mph 4.6 mph 73 % 0.00 in
04:57 31.5 °F 23.8 °F 30.27 in North 2.5 mph 3.5 mph 73 % 0.00 in
05:02 31.5 °F 23.8 °F 30.27 in North 4.2 mph 5.0 mph 73 % 0.00 in
05:04 31.6 °F 23.9 °F 30.27 in North 1.9 mph 4.6 mph 73 % 0.00 in
05:09 31.5 °F 23.8 °F 30.27 in NNE 4.2 mph 5.8 mph 73 % 0.00 in
05:14 31.5 °F 23.8 °F 30.27 in NNE 3.4 mph 4.6 mph 73 % 0.00 in
05:15 31.5 °F 23.8 °F 30.27 in NNE 2.9 mph 4.6 mph 73 % 0.00 in
05:20 31.5 °F 23.8 °F 30.27 in NNE 2.9 mph 4.6 mph 73 % 0.00 in
05:21 31.5 °F 23.8 °F 30.27 in NNE 2.0 mph 5.0 mph 73 % 0.00 in
05:24 31.5 °F 23.8 °F 30.27 in North 3.3 mph 6.0 mph 73 % 0.00 in
05:28 31.5 °F 23.8 °F 30.26 in NNE 2.6 mph 4.0 mph 73 % 0.00 in
05:31 31.5 °F 23.8 °F 30.26 in NNE 1.1 mph 3.5 mph 73 % 0.00 in
05:36 31.5 °F 23.8 °F 30.26 in NNE 4.0 mph 5.8 mph 73 % 0.00 in
05:38 31.4 °F 23.7 °F 30.26 in NNE 2.8 mph 5.0 mph 73 % 0.00 in
05:43 31.4 °F 23.7 °F 30.26 in NNE 1.6 mph 3.5 mph 73 % 0.00 in
05:45 31.4 °F 23.7 °F 30.26 in NNE 0.9 mph 3.5 mph 73 % 0.00 in
05:50 31.4 °F 23.7 °F 30.26 in NNE 1.9 mph 4.0 mph 73 % 0.00 in
05:53 31.4 °F 23.7 °F 30.27 in NNE 1.9 mph 3.5 mph 73 % 0.00 in
05:59 31.3 °F 23.6 °F 30.26 in NNE 3.5 mph 4.0 mph 73 % 0.00 in
06:03 31.3 °F 23.6 °F 30.26 in NNE 4.3 mph 5.8 mph 73 % 0.00 in
06:08 31.3 °F 23.6 °F 30.26 in North 3.2 mph 4.6 mph 73 % 0.00 in
06:09 31.3 °F 23.6 °F 30.26 in NE 4.1 mph 6.0 mph 73 % 0.00 in
06:14 31.3 °F 23.6 °F 30.26 in NNE 3.0 mph 5.0 mph 73 % 0.00 in
06:19 31.3 °F 23.6 °F 30.27 in NNE 0.4 mph 2.3 mph 73 % 0.00 in
06:24 31.3 °F 24.0 °F 30.26 in NNE 0.7 mph 3.5 mph 74 % 0.00 in
06:29 31.2 °F 23.5 °F 30.26 in NNE 3.6 mph 5.8 mph 73 % 0.00 in
06:34 31.1 °F 23.5 °F 30.26 in NNE 0.5 mph 3.5 mph 73 % 0.00 in
06:37 31.1 °F 23.8 °F 30.26 in NNE 1.2 mph 4.6 mph 74 % 0.00 in
06:39 31.1 °F 23.5 °F 30.26 in NNE 2.6 mph 4.6 mph 73 % 0.00 in
06:44 31.0 °F 23.7 °F 30.26 in NNE 3.0 mph 3.5 mph 74 % 0.00 in
06:49 30.9 °F 23.3 °F 30.26 in NE 0.9 mph 3.5 mph 73 % 0.00 in
06:50 30.8 °F 23.2 °F 30.26 in NNE 2.9 mph 3.5 mph 73 % 0.00 in
06:52 30.8 °F 23.2 °F 30.26 in NNE 1.7 mph 3.5 mph 73 % 0.00 in
06:57 30.8 °F 23.2 °F 30.26 in NE 0.2 mph 2.3 mph 73 % 0.00 in
06:58 30.7 °F 23.1 °F 30.26 in ENE 1.9 mph 3.0 mph 73 % 0.00 in
07:08 30.6 °F 23.3 °F 30.27 in ENE 1.5 mph 4.6 mph 74 % 0.00 in
07:10 30.6 °F 23.3 °F 30.27 in ENE 0.7 mph 2.3 mph 74 % 0.00 in
07:15 30.6 °F 23.3 °F 30.27 in NNE 2.3 mph 4.6 mph 74 % 0.00 in
07:18 30.6 °F 23.3 °F 30.28 in NNE 3.0 mph 6.9 mph 74 % 0.00 in
07:20 30.5 °F 23.2 °F 30.28 in NNE 2.7 mph 5.8 mph 74 % 0.00 in
07:25 30.5 °F 23.2 °F 30.27 in NE 2.2 mph 3.5 mph 74 % 0.00 in
07:26 30.5 °F 23.2 °F 30.27 in NNE 2.0 mph 5.0 mph 74 % 0.00 in
07:31 30.5 °F 23.2 °F 30.28 in NE 2.0 mph 5.0 mph 74 % 0.00 in
07:36 30.6 °F 23.3 °F 30.28 in NNE 0.3 mph 2.3 mph 74 % 0.00 in
07:37 30.6 °F 23.3 °F 30.29 in NNE 0.2 mph 1.2 mph 74 % 0.00 in
07:42 30.6 °F 23.3 °F 30.29 in NNE 0.2 mph 3.5 mph 74 % 0.00 in
07:43 30.6 °F 23.3 °F 30.29 in NNE 1.3 mph 4.0 mph 74 % 0.00 in
07:48 30.6 °F 23.3 °F 30.29 in North 0.2 mph 3.5 mph 74 % 0.00 in
07:53 30.7 °F 23.4 °F 30.29 in North 0.8 mph 3.5 mph 74 % 0.00 in
07:56 30.7 °F 23.4 °F 30.29 in North 2.1 mph 3.5 mph 74 % 0.00 in
08:00 30.8 °F 23.2 °F 30.29 in NNE 2.6 mph 3.5 mph 73 % 0.00 in
08:05 30.9 °F 23.3 °F 30.29 in NNE 2.8 mph 3.5 mph 73 % 0.00 in
08:10 31.0 °F 23.4 °F 30.29 in NNE 0.4 mph 3.5 mph 73 % 0.00 in
08:12 31.0 °F 23.7 °F 30.29 in NNE 1.3 mph 2.3 mph 74 % 0.00 in
08:17 31.1 °F 23.8 °F 30.29 in North 2.3 mph 5.0 mph 74 % 0.00 in
08:18 31.1 °F 23.8 °F 30.29 in NNE 3.6 mph 4.6 mph 74 % 0.00 in
08:20 31.2 °F 23.9 °F 30.29 in NNE 0.6 mph 3.5 mph 74 % 0.00 in
08:26 31.2 °F 23.9 °F 30.29 in NNE 5.0 mph 6.0 mph 74 % 0.00 in
08:30 31.3 °F 24.0 °F 30.29 in NNE 0.9 mph 4.6 mph 74 % 0.00 in
08:35 31.4 °F 24.1 °F 30.29 in NNE 0.6 mph 2.3 mph 74 % 0.00 in
08:37 31.4 °F 24.1 °F 30.29 in NNE 2.8 mph 4.0 mph 74 % 0.00 in
08:42 31.4 °F 23.7 °F 30.29 in NNE 2.4 mph 3.5 mph 73 % 0.00 in
08:47 31.5 °F 23.8 °F 30.29 in NE 1.2 mph 3.5 mph 73 % 0.00 in
08:48 31.5 °F 23.8 °F 30.29 in NNE 3.7 mph 4.6 mph 73 % 0.00 in
08:53 31.5 °F 23.8 °F 30.29 in NNE 0.3 mph 2.3 mph 73 % 0.00 in
08:59 31.5 °F 23.8 °F 30.30 in NNE 0.5 mph 3.5 mph 73 % 0.00 in
09:04 31.5 °F 23.8 °F 30.30 in ENE 2.7 mph 4.0 mph 73 % 0.00 in
09:08 31.5 °F 23.8 °F 30.30 in NNE 2.4 mph 4.6 mph 73 % 0.00 in
09:13 31.6 °F 23.9 °F 30.30 in NE 1.9 mph 3.5 mph 73 % 0.00 in
09:14 31.6 °F 23.9 °F 30.30 in NNE 3.4 mph 5.8 mph 73 % 0.00 in
09:20 31.6 °F 23.9 °F 30.30 in NE 2.1 mph 3.5 mph 73 % 0.00 in
09:24 31.6 °F 23.9 °F 30.30 in NE 1.7 mph 3.5 mph 73 % 0.00 in
09:29 31.6 °F 24.3 °F 30.30 in ENE 2.3 mph 3.5 mph 74 % 0.00 in
09:35 31.6 °F 24.3 °F 30.31 in NNE 1.1 mph 3.5 mph 74 % 0.00 in
09:36 31.6 °F 24.3 °F 30.30 in NE 1.4 mph 3.5 mph 74 % 0.00 in
09:41 31.6 °F 24.3 °F 30.30 in Calm   3.5 mph 74 % 0.00 in
09:46 31.7 °F 24.4 °F 30.31 in NE 0.4 mph 3.5 mph 74 % 0.00 in
09:48 31.7 °F 24.4 °F 30.30 in NNE 3.8 mph 5.8 mph 74 % 0.00 in
09:50 31.8 °F 24.8 °F 30.30 in NNE 1.6 mph 3.5 mph 75 % 0.00 in
09:55 31.9 °F 24.9 °F 30.30 in NNE 3.3 mph 5.8 mph 75 % 0.00 in
09:57 31.9 °F 24.6 °F 30.30 in NNE 0.4 mph 2.3 mph 74 % 0.00 in
09:58 32.0 °F 24.6 °F 30.30 in NE 1.9 mph 3.5 mph 74 % 0.00 in
10:03 32.0 °F 24.0 °F 30.31 in ENE 0.3 mph 1.2 mph 72 % 0.00 in
10:05 32.0 °F 24.0 °F 30.31 in ENE 0.8 mph 2.3 mph 72 % 0.00 in
10:10 32.0 °F 24.0 °F 30.31 in NE 0.9 mph 2.3 mph 72 % 0.00 in
10:15 32.2 °F 24.5 °F 30.31 in North 1.7 mph 3.5 mph 73 % 0.00 in
10:20 32.4 °F 24.7 °F 30.31 in Calm   2.0 mph 73 % 0.00 in
10:21 32.4 °F 24.7 °F 30.31 in North 0.9 mph 3.0 mph 73 % 0.00 in
10:27 32.4 °F 24.4 °F 30.31 in North 1.2 mph 2.3 mph 72 % 0.00 in
10:29 32.4 °F 24.0 °F 30.31 in Calm     71 % 0.00 in
10:34 32.3 °F 23.9 °F 30.30 in ENE 0.3 mph 1.2 mph 71 % 0.00 in
10:35 32.3 °F 23.6 °F 30.31 in Calm   1.2 mph 70 % 0.00 in
10:40 32.3 °F 23.6 °F 30.30 in ENE 0.1 mph 1.2 mph 70 % 0.00 in
10:45 32.2 °F 23.8 °F 30.30 in NE 0.5 mph 1.2 mph 71 % 0.00 in
10:50 32.1 °F 23.8 °F 30.30 in Calm     71 % 0.00 in
10:55 32.2 °F 24.2 °F 30.30 in Calm     72 % 0.00 in
11:00 32.2 °F 24.2 °F 30.30 in NNE 0.2 mph 2.0 mph 72 % 0.00 in
11:05 32.4 °F 24.7 °F 30.29 in NNE 0.3 mph 1.2 mph 73 % 0.00 in
11:10 32.5 °F 24.5 °F 30.30 in NNE 1.4 mph 4.6 mph 72 % 0.00 in
11:12 32.6 °F 24.9 °F 30.30 in NNE 0.6 mph 2.3 mph 73 % 0.00 in
11:17 32.6 °F 24.6 °F 30.30 in NNE 0.9 mph 2.0 mph 72 % 0.00 in
11:18 32.7 °F 24.7 °F 30.29 in NNE 3.5 mph 5.0 mph 72 % 0.00 in
11:24 32.8 °F 24.8 °F 30.28 in NE 2.7 mph 3.5 mph 72 % 0.00 in
11:25 32.8 °F 24.8 °F 30.28 in NE 2.2 mph 3.5 mph 72 % 0.00 in
11:30 32.9 °F 24.9 °F 30.28 in Calm     72 % 0.00 in
11:35 32.9 °F 24.2 °F 30.28 in Calm   1.2 mph 70 % 0.00 in
11:40 32.9 °F 24.5 °F 30.28 in NE 0.5 mph 1.2 mph 71 % 0.00 in
11:43 32.9 °F 24.5 °F 30.28 in NE 0.1 mph 1.2 mph 71 % 0.00 in
11:48 32.9 °F 24.5 °F 30.28 in NE 0.2 mph 2.3 mph 71 % 0.00 in
11:50 32.8 °F 24.4 °F 30.28 in NE 0.1 mph 1.2 mph 71 % 0.00 in
11:51 32.8 °F 24.4 °F 30.28 in NE 0.9 mph 2.3 mph 71 % 0.00 in
11:56 32.8 °F 24.8 °F 30.28 in NNE 3.5 mph 4.6 mph 72 % 0.00 in
12:01 32.8 °F 24.8 °F 30.29 in Calm   1.2 mph 72 % 0.00 in
12:06 32.9 °F 25.2 °F 30.29 in Calm   3.0 mph 73 % 0.00 in
12:11 33.1 °F 25.4 °F 30.28 in North 1.7 mph 3.5 mph 73 % 0.00 in
12:12 33.1 °F 25.4 °F 30.28 in North 0.5 mph 3.5 mph 73 % 0.00 in
12:17 33.3 °F 25.2 °F 30.28 in North 2.0 mph 3.0 mph 72 % 0.00 in
12:24 33.5 °F 25.1 °F 30.28 in NNE 2.4 mph 3.5 mph 71 % 0.00 in
12:25 33.5 °F 25.1 °F 30.28 in NNE 1.7 mph 3.5 mph 71 % 0.00 in
12:30 33.7 °F 25.3 °F 30.27 in NNE 3.7 mph 4.6 mph 71 % 0.00 in
12:35 34.0 °F 25.6 °F 30.27 in NNE 1.2 mph 3.0 mph 71 % 0.00 in
12:36 34.1 °F 25.7 °F 30.27 in North 2.3 mph 4.0 mph 71 % 0.00 in
12:40 34.2 °F 25.8 °F 30.27 in NNW 2.2 mph 4.6 mph 71 % 0.00 in
12:42 34.3 °F 25.5 °F 30.26 in NNW 0.1 mph 2.3 mph 70 % 0.00 in
12:47 34.5 °F 25.7 °F 30.26 in NNW 0.5 mph 3.5 mph 70 % 0.00 in
12:52 34.7 °F 25.9 °F 30.26 in NNE 2.2 mph 4.6 mph 70 % 0.00 in
12:54 34.8 °F 26.0 °F 30.26 in NNE 3.9 mph 4.6 mph 70 % 0.00 in
12:59 35.0 °F 25.9 °F 30.26 in NNE 1.3 mph 3.5 mph 69 % 0.00 in
13:02 35.0 °F 25.9 °F 30.25 in NNE 0.6 mph 2.3 mph 69 % 0.00 in
13:07 35.2 °F 26.0 °F 30.25 in NNE 1.5 mph 3.5 mph 69 % 0.00 in
13:09 35.2 °F 26.0 °F 30.25 in NNE 1.5 mph 3.5 mph 69 % 0.00 in
13:12 35.2 °F 26.0 °F 30.25 in NNE 2.3 mph 3.5 mph 69 % 0.00 in
13:19 35.3 °F 26.1 °F 30.25 in NNE 0.9 mph 3.0 mph 69 % 0.00 in
13:24 35.2 °F 26.0 °F 30.25 in NNE 1.4 mph 2.3 mph 69 % 0.00 in
13:28 35.3 °F 26.1 °F 30.25 in Calm     69 % 0.00 in
13:30 35.2 °F 25.7 °F 30.25 in Calm   1.2 mph 68 % 0.00 in
13:35 35.2 °F 25.7 °F 30.25 in NNE 1.9 mph 4.0 mph 68 % 0.00 in
13:36 35.2 °F 25.7 °F 30.25 in NNE 2.1 mph 3.5 mph 68 % 0.00 in
13:37 35.2 °F 25.7 °F 30.25 in NNE 1.0 mph 3.5 mph 68 % 0.00 in
13:42 35.1 °F 25.9 °F 30.25 in NNE 0.5 mph 2.3 mph 69 % 0.00 in
13:46 35.1 °F 25.9 °F 30.24 in Calm   2.3 mph 69 % 0.00 in
13:51 35.2 °F 25.7 °F 30.24 in NNW 0.3 mph 2.3 mph 68 % 0.00 in
13:56 35.3 °F 25.8 °F 30.24 in NNW 0.3 mph 2.3 mph 68 % 0.00 in
14:01 35.3 °F 26.1 °F 30.24 in NW 0.8 mph 3.5 mph 69 % 0.00 in
14:02 35.3 °F 26.1 °F 30.24 in NW 0.5 mph 3.5 mph 69 % 0.00 in
14:07 35.3 °F 26.1 °F 30.24 in NW 0.1 mph 1.2 mph 69 % 0.00 in
14:09 35.4 °F 25.9 °F 30.25 in NW 0.1 mph 1.2 mph 68 % 0.00 in
14:14 35.4 °F 25.9 °F 30.25 in NW 0.6 mph 2.3 mph 68 % 0.00 in
14:20 35.4 °F 25.9 °F 30.25 in NW 0.5 mph 1.2 mph 68 % 0.00 in
14:21 35.4 °F 25.9 °F 30.25 in NW 0.8 mph 2.3 mph 68 % 0.00 in
14:26 35.3 °F 25.8 °F 30.24 in Calm     68 % 0.00 in
14:30 35.3 °F 25.8 °F 30.24 in NW 1.1 mph 2.3 mph 68 % 0.00 in
14:35 35.2 °F 25.3 °F 30.24 in Calm     67 % 0.00 in
14:38 35.2 °F 25.7 °F 30.24 in Calm   1.0 mph 68 % 0.00 in
14:43 35.1 °F 25.6 °F 30.24 in North 2.6 mph 3.5 mph 68 % 0.00 in
14:45 35.0 °F 25.5 °F 30.24 in North 1.2 mph 3.5 mph 68 % 0.00 in
14:50 35.0 °F 25.9 °F 30.24 in NNE 1.9 mph 3.5 mph 69 % 0.00 in
14:51 34.9 °F 25.8 °F 30.24 in NNE 1.8 mph 3.5 mph 69 % 0.00 in
14:56 34.9 °F 26.1 °F 30.24 in NNE 0.5 mph 2.3 mph 70 % 0.00 in
14:57 34.9 °F 26.1 °F 30.24 in NNE 1.5 mph 4.0 mph 70 % 0.00 in
15:02 34.8 °F 26.4 °F 30.24 in NNE 0.3 mph 2.3 mph 71 % 0.00 in
15:06 34.8 °F 26.0 °F 30.25 in NNE 0.2 mph 1.2 mph 70 % 0.00 in
15:11 34.7 °F 25.9 °F 30.25 in NNE 1.1 mph 2.3 mph 70 % 0.00 in
15:12 34.7 °F 26.3 °F 30.25 in Calm   2.3 mph 71 % 0.00 in
15:16 34.7 °F 25.9 °F 30.25 in NNE 2.2 mph 3.5 mph 70 % 0.00 in
15:19 34.7 °F 26.3 °F 30.25 in NNE 2.4 mph 4.0 mph 71 % 0.00 in
15:24 34.6 °F 25.8 °F 30.25 in NNE 1.5 mph 4.0 mph 70 % 0.00 in
15:29 34.5 °F 26.1 °F 30.25 in NNE 0.7 mph 2.3 mph 71 % 0.00 in
15:32 34.5 °F 26.1 °F 30.25 in Calm     71 % 0.00 in
15:37 34.4 °F 26.0 °F 30.25 in NNE 1.8 mph 4.0 mph 71 % 0.00 in
15:40 34.3 °F 25.9 °F 30.24 in NNE 2.2 mph 3.5 mph 71 % 0.00 in
15:45 34.2 °F 25.8 °F 30.24 in NNE 1.8 mph 3.5 mph 71 % 0.00 in
15:47 34.1 °F 25.7 °F 30.24 in NNE 0.6 mph 2.0 mph 71 % 0.00 in
15:52 34.1 °F 25.7 °F 30.25 in Calm     71 % 0.00 in
15:53 34.1 °F 25.7 °F 30.25 in Calm     71 % 0.00 in
15:58 34.1 °F 25.7 °F 30.25 in NNE 0.2 mph 2.3 mph 71 % 0.00 in
15:59 34.1 °F 25.3 °F 30.25 in Calm   2.3 mph 70 % 0.00 in
16:01 34.1 °F 25.3 °F 30.25 in Calm     70 % 0.00 in
16:06 34.0 °F 25.2 °F 30.24 in Calm     70 % 0.00 in
16:07 34.0 °F 25.2 °F 30.24 in Calm     70 % 0.00 in
16:11 34.0 °F 25.2 °F 30.24 in Calm     70 % 0.00 in
16:16 33.9 °F 25.1 °F 30.25 in Calm     70 % 0.00 in
16:21 33.9 °F 25.1 °F 30.25 in Calm     70 % 0.00 in
16:26 33.8 °F 25.0 °F 30.25 in Calm     70 % 0.00 in
16:28 33.7 °F 25.0 °F 30.24 in Calm     70 % 0.00 in
16:33 33.5 °F 25.1 °F 30.25 in Calm     71 % 0.00 in
16:36 33.5 °F 25.4 °F 30.25 in Calm     72 % 0.00 in
16:38 33.4 °F 25.3 °F 30.25 in Calm     72 % 0.00 in
16:43 33.2 °F 25.1 °F 30.25 in Calm     72 % 0.00 in
16:47 33.1 °F 25.1 °F 30.25 in Calm     72 % 0.00 in
16:51 33.0 °F 25.0 °F 30.25 in Calm     72 % 0.00 in
16:56 32.9 °F 25.2 °F 30.26 in Calm     73 % 0.00 in
16:58 32.8 °F 25.1 °F 30.25 in Calm     73 % 0.00 in
17:03 32.7 °F 25.0 °F 30.25 in Calm     73 % 0.00 in
17:05 32.6 °F 25.2 °F 30.25 in Calm     74 % 0.00 in
17:10 32.5 °F 25.5 °F 30.25 in Calm     75 % 0.00 in
17:14 32.4 °F 25.7 °F 30.25 in Calm     76 % 0.00 in
17:19 32.2 °F 25.8 °F 30.26 in Calm     77 % 0.00 in
17:20 32.2 °F 25.8 °F 30.26 in Calm     77 % 0.00 in
17:22 32.2 °F 25.8 °F 30.26 in Calm     77 % 0.00 in
17:27 32.1 °F 25.7 °F 30.26 in Calm     77 % 0.00 in
17:28 32.1 °F 25.7 °F 30.25 in Calm     77 % 0.00 in
17:29 32.0 °F 25.3 °F 30.25 in Calm     76 % 0.00 in
17:34 31.9 °F 25.2 °F 30.25 in Calm     76 % 0.00 in
17:35 31.9 °F 25.2 °F 30.25 in Calm     76 % 0.00 in
17:40 31.8 °F 25.4 °F 30.26 in Calm     77 % 0.00 in
17:45 31.7 °F 25.6 °F 30.26 in Calm     78 % 0.00 in
17:50 31.6 °F 25.5 °F 30.25 in Calm     78 % 0.00 in
17:51 31.6 °F 25.5 °F 30.25 in Calm     78 % 0.00 in
17:57 31.5 °F 25.4 °F 30.25 in Calm     78 % 0.00 in
18:00 31.5 °F 25.4 °F 30.25 in Calm     78 % 0.00 in
18:05 31.4 °F 25.3 °F 30.25 in Calm     78 % 0.00 in
18:06 31.5 °F 25.4 °F 30.25 in Calm     78 % 0.00 in
18:10 31.5 °F 25.4 °F 30.26 in Calm     78 % 0.00 in
18:15 31.4 °F 25.3 °F 30.26 in Calm     78 % 0.00 in
18:18 31.4 °F 25.3 °F 30.26 in Calm     78 % 0.00 in
18:23 31.5 °F 25.7 °F 30.26 in Calm     79 % 0.00 in
18:26 31.5 °F 26.0 °F 30.26 in Calm     80 % 0.00 in
18:31 31.5 °F 26.0 °F 30.26 in Calm     80 % 0.00 in
18:33 31.5 °F 26.0 °F 30.26 in Calm     80 % 0.00 in
18:35 31.5 °F 26.0 °F 30.26 in Calm     80 % 0.00 in
18:39 31.5 °F 26.0 °F 30.26 in Calm     80 % 0.00 in
18:42 31.5 °F 26.0 °F 30.27 in NNE 0.2 mph 1.2 mph 80 % 0.00 in
18:44 31.5 °F 26.0 °F 30.27 in Calm   1.2 mph 80 % 0.00 in
18:49 31.6 °F 26.1 °F 30.28 in Calm   1.2 mph 80 % 0.00 in
18:50 31.6 °F 26.1 °F 30.28 in Calm     80 % 0.00 in
18:55 31.6 °F 26.1 °F 30.27 in Calm     80 % 0.00 in
18:56 31.6 °F 26.1 °F 30.27 in Calm     80 % 0.00 in
18:57 31.6 °F 26.1 °F 30.27 in Calm     80 % 0.00 in
19:02 31.6 °F 26.1 °F 30.27 in Calm     80 % 0.00 in
19:07 31.7 °F 26.2 °F 30.27 in Calm     80 % 0.00 in
19:08 31.7 °F 26.2 °F 30.27 in Calm     80 % 0.00 in
19:09 31.7 °F 26.2 °F 30.27 in Calm     80 % 0.00 in
19:14 31.8 °F 26.3 °F 30.28 in Calm     80 % 0.00 in
19:17 31.8 °F 26.3 °F 30.28 in Calm     80 % 0.00 in
19:22 31.8 °F 26.3 °F 30.28 in Calm     80 % 0.00 in
19:27 31.9 °F 26.4 °F 30.28 in Calm     80 % 0.00 in
19:32 31.9 °F 26.4 °F 30.27 in Calm     80 % 0.00 in
19:37 32.0 °F 26.8 °F 30.27 in Calm     81 % 0.00 in
19:38 32.0 °F 26.8 °F 30.27 in Calm     81 % 0.00 in
19:43 32.0 °F 26.8 °F 30.27 in Calm     81 % 0.00 in
19:48 32.0 °F 26.8 °F 30.28 in Calm     81 % 0.00 in
19:54 32.1 °F 26.9 °F 30.27 in Calm     81 % 0.00 in
19:55 32.1 °F 26.9 °F 30.28 in Calm     81 % 0.00 in
19:56 32.1 °F 26.9 °F 30.28 in Calm     81 % 0.00 in
20:01 32.1 °F 26.9 °F 30.28 in Calm     81 % 0.00 in
20:02 32.1 °F 26.9 °F 30.28 in Calm     81 % 0.00 in
20:03 32.1 °F 26.9 °F 30.28 in Calm     81 % 0.00 in
20:08 32.1 °F 26.9 °F 30.27 in Calm     81 % 0.00 in
20:11 32.2 °F 27.0 °F 30.27 in Calm     81 % 0.00 in
20:17 32.2 °F 27.0 °F 30.26 in Calm     81 % 0.00 in
20:22 32.2 °F 27.0 °F 30.26 in Calm     81 % 0.00 in
20:23 32.3 °F 27.1 °F 30.26 in Calm     81 % 0.00 in
20:28 32.3 °F 27.1 °F 30.27 in Calm     81 % 0.00 in
20:29 32.3 °F 27.1 °F 30.26 in Calm     81 % 0.00 in
20:35 32.3 °F 27.1 °F 30.26 in Calm     81 % 0.00 in
20:38 32.3 °F 27.1 °F 30.26 in Calm     81 % 0.00 in
20:43 32.3 °F 27.1 °F 30.26 in Calm     81 % 0.00 in
20:46 32.4 °F 27.5 °F 30.25 in Calm     82 % 0.00 in
20:52 32.4 °F 27.5 °F 30.25 in Calm     82 % 0.00 in
20:55 32.4 °F 27.5 °F 30.25 in Calm     82 % 0.00 in
21:00 32.5 °F 27.6 °F 30.25 in Calm     82 % 0.00 in
21:01 32.5 °F 27.6 °F 30.25 in Calm     82 % 0.00 in
21:06 32.5 °F 27.6 °F 30.25 in Calm     82 % 0.00 in
21:07 32.5 °F 27.6 °F 30.25 in Calm     82 % 0.00 in
21:12 32.5 °F 27.3 °F 30.24 in Calm     81 % 0.00 in
21:13 32.5 °F 27.3 °F 30.24 in Calm     81 % 0.00 in
21:16 32.5 °F 27.6 °F 30.24 in Calm     82 % 0.00 in
21:18 32.6 °F 27.7 °F 30.25 in Calm     82 % 0.00 in
21:23 32.6 °F 27.4 °F 30.25 in Calm     81 % 0.00 in
21:24 32.6 °F 27.7 °F 30.25 in Calm     82 % 0.00 in
21:29 32.6 °F 27.7 °F 30.25 in Calm     82 % 0.00 in
21:34 32.7 °F 27.8 °F 30.25 in Calm     82 % 0.00 in
21:36 32.7 °F 27.8 °F 30.24 in Calm     82 % 0.00 in
21:41 32.8 °F 27.9 °F 30.24 in Calm     82 % 0.00 in
21:42 32.8 °F 27.9 °F 30.24 in Calm     82 % 0.00 in
21:47 32.8 °F 27.6 °F 30.24 in Calm   1.2 mph 81 % 0.00 in
21:50 32.9 °F 27.7 °F 30.25 in Calm     81 % 0.00 in
21:51 32.9 °F 27.7 °F 30.25 in Calm     81 % 0.00 in
21:56 32.9 °F 27.7 °F 30.24 in Calm     81 % 0.00 in
21:59 33.0 °F 27.8 °F 30.24 in Calm     81 % 0.00 in
22:00 33.0 °F 27.8 °F 30.25 in Calm     81 % 0.00 in
22:05 33.0 °F 27.5 °F 30.24 in Calm     80 % 0.00 in
22:06 33.0 °F 27.5 °F 30.24 in Calm   1.0 mph 80 % 0.00 in
22:12 33.2 °F 27.7 °F 30.24 in East 0.3 mph 3.5 mph 80 % 0.00 in
22:18 33.2 °F 27.4 °F 30.24 in East 0.1 mph 1.0 mph 79 % 0.00 in
22:23 33.2 °F 27.4 °F 30.24 in Calm   1.2 mph 79 % 0.00 in
22:27 33.3 °F 27.2 °F 30.23 in East 0.4 mph 1.2 mph 78 % 0.00 in
22:30 33.3 °F 27.2 °F 30.24 in East 0.8 mph 2.3 mph 78 % 0.00 in
22:35 33.4 °F 27.3 °F 30.24 in Calm     78 % 0.00 in
22:38 33.4 °F 27.3 °F 30.23 in East 1.2 mph 3.5 mph 78 % 0.00 in
22:43 33.4 °F 27.0 °F 30.23 in Calm     77 % 0.00 in
22:49 33.4 °F 27.0 °F 30.23 in East 0.8 mph 1.2 mph 77 % 0.00 in
22:51 33.4 °F 27.0 °F 30.22 in East 0.6 mph 2.3 mph 77 % 0.00 in
22:55 33.4 °F 26.6 °F 30.22 in ESE 0.6 mph 3.5 mph 76 % 0.00 in
22:58 33.4 °F 26.6 °F 30.22 in ESE 0.7 mph 2.3 mph 76 % 0.00 in
23:03 33.5 °F 26.7 °F 30.22 in Calm     76 % 0.00 in
23:06 33.5 °F 26.7 °F 30.22 in ESE 0.2 mph 1.2 mph 76 % 0.00 in
23:07 33.5 °F 26.7 °F 30.22 in ESE 0.2 mph 2.3 mph 76 % 0.00 in
23:12 33.4 °F 26.3 °F 30.21 in SE 0.1 mph 3.5 mph 75 % 0.00 in
23:17 33.5 °F 26.4 °F 30.21 in Calm   2.3 mph 75 % 0.00 in
23:20 33.5 °F 26.1 °F 30.21 in SE 0.3 mph 1.2 mph 74 % 0.00 in
23:23 33.5 °F 26.1 °F 30.21 in SE 1.2 mph 2.3 mph 74 % 0.00 in
23:28 33.5 °F 26.1 °F 30.21 in SE 0.7 mph 2.0 mph 74 % 0.00 in
23:33 33.4 °F 26.0 °F 30.21 in SE 0.7 mph 2.3 mph 74 % 0.00 in
23:34 33.4 °F 26.0 °F 30.21 in SE 0.2 mph 2.3 mph 74 % 0.00 in
23:39 33.4 °F 25.7 °F 30.21 in SE 0.1 mph 1.2 mph 73 % 0.00 in
23:41 33.5 °F 25.8 °F 30.21 in SE 0.6 mph 2.3 mph 73 % 0.00 in
23:50 33.4 °F 25.7 °F 30.21 in SE 0.1 mph 1.2 mph 73 % 0.00 in
23:55 33.4 °F 25.7 °F 30.21 in Calm     73 % 0.00 in
23:57 33.4 °F 25.7 °F 30.21 in Calm     73 % 0.00 in
Crab Meadow Weather
Compliments of Weather Underground - 3.5 mb

Script developed by  Jim McMurry - jmcmurry@mwt.net Adapted for the template by  Wim van der Kuil - Leuven-Template.eu

Astronomy: Earth is 93 million miles away from the Sun.